, NM

(GMT )
Holloman AFB

Weather History for KHMN - November, 2013

Change the Weather History Date:

Tuesday, November 12, 2013

  Actual Average Record
Temperature  
Mean Temperature 50 °F -  
Max Temperature 64 °F 62 °F 75 °F (2001)
Min Temperature 36 °F 34 °F 19 °F (2012)
Degree Days  
Heating Degree Days 15    
Moisture  
Dew Point 33 °F    
Average Humidity 54    
Maximum Humidity 74    
Minimum Humidity 35    
Precipitation  
Precipitation 0.00 in - - ()
Sea Level Pressure  
Sea Level Pressure 30.37 in    
Wind  
Wind Speed 5 mph (SSW)    
Max Wind Speed 15 mph    
Max Gust Speed -    
Visibility 10 miles    
Events      
Averages and records for this station are not official NWS values.
T = Trace of Precipitation, MM = Missing Value Source: NWS Daily Summary

Daily Weather History Graph

Daily Weather History Graph

Search for Another Location

Airport or City:

Trip Planner

Search our weather history database for the weather conditions in past years. The results will help you decide how hot, cold, wet, or windy it might be!

Date:

Astronomy

Nov. 12, 2013 Rise Set
Actual Time 6:32 AM MST 5:04 PM MST
Civil Twilight 6:06 AM MST 5:30 PM MST
Nautical Twilight 5:36 AM MST 6:00 PM MST
Astronomical Twilight 5:07 AM MST 6:29 PM MST
Moon 2:06 PM MST (11/12) 1:40 AM MST (11/12)
Length of Visible Light 11h 24m
Length of Day
10h 32m
Waxing Gibbous, 77% of the Moon is Illuminated
Nov 12
Waxing Gibbous
Nov 17
Full
Nov 25
Last Quarter
Dec 2
New
Dec 9
First Quarter

Hourly Weather History & Observations

Time (MST) Temp. Windchill Dew Point Humidity Pressure Visibility Wind Dir Wind Speed Gust Speed Precip Events Conditions
12:58 AM 45.7 °F 44.4 °F 28.8 °F 52% 30.18 in 10.0 mi ENE 3.5 mph - N/A   Clear
1:58 AM 40.1 °F - 27.0 °F 59% 30.19 in 10.0 mi WNW 2.3 mph - N/A   Clear
2:58 AM 40.1 °F 36.9 °F 26.8 °F 59% 30.21 in 10.0 mi SW 4.6 mph - N/A   Clear
3:58 AM 39.7 °F - 26.1 °F 58% 30.23 in 10.0 mi Calm Calm - N/A   Clear
4:58 AM 37.8 °F 35.3 °F 24.8 °F 60% 30.26 in 10.0 mi East 3.5 mph - N/A   Clear
5:58 AM 36.9 °F 33.1 °F 24.8 °F 62% 30.31 in 10.0 mi SE 4.6 mph - N/A   Clear
6:58 AM 38.5 °F 34.1 °F 26.1 °F 61% 30.39 in 10.0 mi SSE 5.8 mph - N/A   Clear
7:58 AM 44.1 °F 40.8 °F 31.5 °F 61% 30.43 in 10.0 mi SE 5.8 mph - N/A   Clear
8:58 AM 50.2 °F - 35.6 °F 57% 30.43 in 10.0 mi SSE 9.2 mph - N/A   Clear
9:58 AM 55.8 °F - 36.5 °F 48% 30.43 in 10.0 mi SW 4.6 mph - N/A   Clear
10:58 AM 60.8 °F - 32.9 °F 35% 30.41 in 10.0 mi SW 4.6 mph - N/A   Clear
11:58 AM 62.2 °F - 34.9 °F 36% 30.41 in 10.0 mi SW 8.1 mph - N/A   Clear
12:58 PM 64.0 °F - 35.8 °F 35% 30.38 in 10.0 mi WSW 9.2 mph - N/A   Clear
1:58 PM 64.9 °F - 36.5 °F 35% 30.38 in 10.0 mi South 6.9 mph - N/A   Clear
2:58 PM 64.2 °F - 36.3 °F 36% 30.36 in 10.0 mi West 10.4 mph - N/A   Clear
3:58 PM 63.3 °F - 36.3 °F 37% 30.36 in 10.0 mi WNW 6.9 mph - N/A   Clear
4:58 PM 61.0 °F - 36.7 °F 40% 30.37 in 10.0 mi NNW 8.1 mph - N/A   Clear
5:58 PM 55.2 °F - 37.0 °F 50% 30.42 in 10.0 mi SW 11.5 mph - N/A   Partly Cloudy
6:58 PM 51.4 °F - 37.4 °F 59% 30.45 in 10.0 mi WSW 5.8 mph - N/A   Partly Cloudy
7:58 PM 49.3 °F - 37.4 °F 64% 30.46 in 10.0 mi SSW 15.0 mph - N/A   Clear
8:58 PM 45.7 °F 39.8 °F 35.8 °F 68% 30.48 in 10.0 mi SW 12.7 mph - N/A   Clear
9:58 PM 45.0 °F 40.6 °F 35.8 °F 70% 30.47 in 10.0 mi SW 8.1 mph - N/A   Clear
10:58 PM 44.8 °F 43.3 °F 35.6 °F 70% 30.46 in 10.0 mi SW 3.5 mph - N/A   Clear
11:58 PM 43.0 °F - 35.1 °F 74% 30.45 in 10.0 mi Calm Calm - N/A   Clear